Вернуться в каталог

COSMOS 1818 COOLANT

LostLEO
NORAD 50774·DEBRIS·🇷🇺 Russia

Запущен Feb 1, 1987 с Baikonur Cosmodrome

Loading…

Ближайшие Пролёты (ближайшие 24 часа)

TLE

УстаревшееSource: Space-Track

Эпоха: Aug 24, 2022, 04:31 UTC

1 50774U 87011AP  22236.18867183  .00000149  00000-0  89341-4 0  9990
2 50774  65.0099 162.2071 0017205 253.5884 106.3310 14.34005239454090

Отслеживайте COSMOS 1818 COOLANT в реальном времени с AllMySat

Download on the App Store